Weather History for Fulton, NY

Change the Weather History Date:

Monday, December 31, 2012

  Actual Average (KSYR) Record (KSYR)
Temperature  
Mean Temperature 31 °F 25 °F  
Max Temperature 35 °F 33 °F 62 °F (1965)
Min Temperature 27 °F 18 °F -14 °F (1917)
Degree Days  
Heating Degree Days 34 40  
Month to date heating degree days 1104  
Since 1 July heating degree days 2453  
Cooling Degree Days 0 0  
Month to date cooling degree days 0  
Year to date cooling degree days 569  
Moisture  
Dew Point 22 °F    
Average Humidity 68    
Maximum Humidity 75    
Minimum Humidity 54    
Precipitation  
Precipitation 0.00 in 0.09 in 0.91 in (1948)
Month to date precipitation 3.22  
Year to date precipitation 38.47  
Snow  
Snow 0.00 in 1.10 in 8.70 in (2000)
Month to date snowfall 32.7  
Since 1 July snowfall 42.6  
Snow Depth -    
Sea Level Pressure  
Sea Level Pressure 29.96 in    
Wind  
Wind Speed 12 mph (SW)    
Max Wind Speed 18 mph    
Max Gust Speed 29 mph    
Visibility 10 miles    
Events Snow    
T = Trace of Precipitation, MM = Missing Value Source: NWS Daily Summary

Daily Weather History Graph

Daily Weather History Graph

Search for Another Location

Airport:

Trip Planner

Search our weather history database for the weather conditions in past years. The results will help you decide how hot, cold, wet, or windy it might be!

Date:

Astronomy

Dec. 31, 2012 Rise Set
Actual Time 7:38 AM EST 4:39 PM EST
Civil Twilight 7:05 AM EST 5:12 PM EST
Nautical Twilight 6:29 AM EST 5:48 PM EST
Astronomical Twilight 5:54 AM EST 6:22 PM EST
Moon 8:14 PM EST (12/31) 9:12 AM EST (12/31)
Length of Visible Light 10h 06m
Length of Day
9h 01m
Waning Gibbous, 90% of the Moon is Illuminated
Dec 31
Waning Gibbous
Jan 4
Last Quarter
Jan 11
New
Jan 18
First Quarter
Jan 26
Full

Hourly Weather History & Observations

Time (EST) Temp. Windchill Dew Point Humidity Pressure Visibility Wind Dir Wind Speed Gust Speed Precip Events Conditions
12:54 AM 27.0 °F 17.3 °F 18.0 °F 69% 30.15 in 10.0 mi WSW 10.4 mph - N/A   Overcast
1:54 AM 28.0 °F 17.5 °F 19.0 °F 69% 30.14 in 10.0 mi SW 12.7 mph - N/A   Overcast
2:12 AM 28.4 °F 18.0 °F 19.4 °F 69% 30.11 in 10.0 mi SW 12.7 mph - N/A   Overcast
2:54 AM 28.0 °F 18.1 °F 21.0 °F 75% 30.12 in 10.0 mi WSW 11.5 mph - N/A   Overcast
3:54 AM 28.0 °F 16.1 °F 21.0 °F 75% 30.12 in 10.0 mi WSW 16.1 mph 24.2 mph N/A   Overcast
4:54 AM 27.0 °F 16.7 °F 19.9 °F 75% 30.10 in 10.0 mi SW 11.5 mph - N/A   Overcast
5:54 AM 27.0 °F 17.3 °F 19.9 °F 75% 30.09 in 10.0 mi SW 10.4 mph - N/A   Overcast
7:54 AM 28.0 °F 18.1 °F 21.0 °F 75% 30.07 in 10.0 mi SW 11.5 mph - N/A   Overcast
8:54 AM 28.0 °F 18.1 °F 21.0 °F 75% 30.06 in 10.0 mi SSW 11.5 mph - N/A   Overcast
9:54 AM 28.9 °F 18.6 °F 21.0 °F 72% 30.05 in 10.0 mi SW 12.7 mph - N/A   Overcast
10:47 AM 28.4 °F 21.2 °F 19.4 °F 69% 30.00 in 10.0 mi SSW 6.9 mph - N/A   Scattered Clouds
10:54 AM 28.9 °F 19.8 °F 19.0 °F 67% 30.02 in 10.0 mi SSW 10.4 mph - N/A   Partly Cloudy
11:54 AM 30.0 °F 20.0 °F 19.0 °F 64% 29.97 in 10.0 mi SSW 12.7 mph - N/A   Clear
12:54 PM 32.0 °F 23.6 °F 19.9 °F 61% 29.94 in 10.0 mi SSW 10.4 mph - N/A   Clear
1:54 PM 32.0 °F 25.6 °F 19.9 °F 61% 29.91 in 10.0 mi SSW 6.9 mph - N/A   Scattered Clouds
2:54 PM 34.0 °F 26.6 °F 19.0 °F 54% 29.89 in 10.0 mi SW 9.2 mph - N/A   Overcast
3:54 PM 34.0 °F 26.6 °F 21.0 °F 59% 29.87 in 10.0 mi SSW 9.2 mph - N/A   Overcast
4:54 PM 34.0 °F 25.5 °F 21.9 °F 61% 29.86 in 10.0 mi SW 11.5 mph - N/A   Overcast
5:10 PM 33.8 °F 25.3 °F 21.2 °F 60% 29.85 in 10.0 mi SW 11.5 mph - N/A   Overcast
5:54 PM 34.0 °F 25.5 °F 21.9 °F 61% 29.86 in 10.0 mi SSW 11.5 mph - N/A   Overcast
6:54 PM 34.0 °F 25.5 °F 23.0 °F 64% 29.84 in 10.0 mi SW 11.5 mph - N/A   Overcast
7:54 PM 34.0 °F 25.5 °F 24.1 °F 67% 29.83 in 10.0 mi SW 11.5 mph - N/A   Overcast
8:54 PM 34.0 °F 25.0 °F 25.0 °F 70% 29.83 in 10.0 mi SW 12.7 mph - N/A   Overcast
9:54 PM 35.1 °F 25.2 °F 26.1 °F 70% 29.83 in 10.0 mi West 16.1 mph 28.8 mph N/A   Overcast
10:37 PM 35.6 °F 26.2 °F 26.6 °F 70% 29.80 in 10.0 mi West 15.0 mph - N/A   Overcast
10:54 PM 35.1 °F 25.5 °F 26.1 °F 70% 29.82 in 10.0 mi West 15.0 mph - N/A   Overcast
11:01 PM 35.6 °F 26.2 °F 26.6 °F 70% 29.81 in 10.0 mi West 15.0 mph - N/A   Overcast
11:54 PM 35.1 °F 24.5 °F 26.1 °F 70% 29.82 in 7.0 mi WSW 18.4 mph 24.2 mph 0.00 in Snow Light Snow